Погода в Голливуде

США     26°02′29″N   80°11′33″W
темп.,
°C
ветер,
м/с
пор.,
м/с
влажн.,
%
обл.,
%
осадки,
мм/ч
давл.,
гПа
погр.,
м
25 февраля, чт
чт2501:00+24з236955 1.3 1021274
04:00+22сз347316 0.1 1019259
07:00+22сз12708 0.1 1021121
10:00+25сз22520 0.0 1022548
13:00+28ссз22350 0.0 10211393
16:00+29в32360 0.0 10191283
19:00+25всв55560 0.0 1020547
22:00+24св46640 0.0 1021486
26 февраля, пт
пт2601:00+23всв45670 0.0 1020554
04:00+23в35720 0.0 1018504
07:00+23в25784 0.0 1020320
10:00+26вюв456411 0.0 10211038
13:00+28вюв55559 0.1 10211281
16:00+27вюв566011 0.0 10191041
19:00+25в45656 0.0 1020830
22:00+25в68730 0.0 1021803
27 февраля, сб
сб2701:00+24вюв58730 0.1 1020796
04:00+24вюв687818 0.0 1020844
07:00+24вюв587714 0.1 1021765
10:00+26юв79591 0.1 10221130
13:00+28юв79570 0.1 10221325
16:00+28вюв68590 0.0 10201188
19:00+26вюв68680 0.0 1021883
22:00+25вюв8107412 0.1 1022876
28 февраля, вс
вс2801:00+24вюв710689 0.1 1022853
04:00+24вюв797136 0.1 10211078
07:00+24вюв697356 0.1 1021974
10:00+27юв8106165 0.1 10231282
13:00+28юв795667 0.1 10211363
16:00+28юв78566 0.0 10201316
19:00+26вюв676823 0.1 10201065
22:00+26юв687147 0.1 1020950
1 марта, пн
пн101:00+25юв797340 0.2 1019862
04:00+24юв57730 0.0 1018955
07:00+24ююв37750 0.0 1019745
10:00+27ююв566072 0.0 10201179
13:00+29ююв555369 0.1 10191332
16:00+29ююв655451 0.0 10161079
19:00+26ююв566630 0.0 1017726
22:00+26ююз236833 0.1 1019728